Location: Artiguedieu
(43.5000°N, 0.5454°E)
Time: 10:20:39
(UTC+00:00)

Vanguard 1 Rocket - Pass Details

Date: 03 August 2021
Orbit: 650 x 4226 km, 34.3° (Epoch: 24 September)

Event Time Altitude Azimuth Distance (km) Brightness Sun altitude
Rises 09:08:20 0° 232° (SW) 8,392 12.1 44.8°
Reaches altitude 10° 09:14:50 10° 228° (SW) 7,145 11.9 45.9°
Maximum altitude 09:35:29 48° 164° (SSE) 3,416 11.6 49.3°
Drops below altitude 10° 09:47:11 10° 95° (E) 4,236 11.6 51.1°
Sets 09:49:55 0° 89° (E) 4,871 11.6 51.5°
